Location: Eboldshausen
(51.7766°N, 10.0050°E)
Time: 17:09:11
(UTC+00:00)

Cosmos 1943 Rocket - Pass Details

Date: 15 November 2025
Orbit: 812 x 841 km, 71.0° (Epoch: 13 December)

Event Time Altitude Azimuth Distance (km) Brightness Sun altitude
Rises 16:39:12 0° 173° (S) 3,373 5.5 -10.7°
Reaches altitude 10° 16:41:55 10° 162° (SSE) 2,440 4.6 -11.1°
Maximum altitude 16:46:37 29° 105° (ESE) 1,497 3.0 -11.9°
Enters shadow 16:50:15 15° 55° (NE) 2,112 3.7 -12.4°
